This is the latest recevied weather packets stored in our database for station/object AD8BV. If no packets are shown the sender has not sent any weather packets the latest 10 day(s).
| Time | Temp. | Humidity | Pressure | Rain* | Wind** | Luminosity | Snow |
|---|---|---|---|---|---|---|---|
| 1778004708 | 12.22° C | 64% | 1009.6 hPa | 0 mm | - | 393 W/m² | - |
| 1778004404 | 12.22° C | 64% | 1009.6 hPa | 0 mm | - | 198 W/m² | - |
| 1778004102 | 12.22° C | 65% | 1009.4 hPa | 0 mm | - | 165 W/m² | - |
| 1778003797 | 12.22° C | 68% | 1009.6 hPa | 0 mm | - | 146 W/m² | - |
| 1778003494 | 12.22° C | 66% | 1009.4 hPa | 0 mm | - | 189 W/m² | - |
| 1778003191 | 12.78° C | 66% | 1009.5 hPa | 0 mm | - | 266 W/m² | - |
| 1778002887 | 12.78° C | 64% | 1009.3 hPa | 0 mm | - | 264 W/m² | - |
| 1778002584 | 12.78° C | 66% | 1009.1 hPa | 0 mm | - | 357 W/m² | - |
| 1778002280 | 12.78° C | 66% | 1009.1 hPa | 0 mm | - | 329 W/m² | - |
| 1778001978 | 12.78° C | 67% | 1008.9 hPa | 0 mm | - | 353 W/m² | - |
| 1778001675 | 12.78° C | 70% | 1008.8 hPa | 0 mm | - | 324 W/m² | - |
| 1778001369 | 12.22° C | 68% | 1008.8 hPa | 0 mm | - | 312 W/m² | - |
| 1778001067 | 11.67° C | 71% | 1008.8 hPa | 0 mm | - | 288 W/m² | - |
| 1778000763 | 12.22° C | 71% | 1008.9 hPa | 0 mm | - | 257 W/m² | - |
| 1778000460 | 11.67° C | 71% | 1008.6 hPa | 0 mm | - | 258 W/m² | - |
| 1778000155 | 12.22° C | 70% | 1008.7 hPa | 0 mm | - | 303 W/m² | - |
| 1777999851 | 12.78° C | 71% | 1008.6 hPa | 0 mm | - | 451 W/m² | - |
| 1777999547 | 12.78° C | 70% | 1008.8 hPa | 0 mm | - | 376 W/m² | - |
| 1777999245 | 12.22° C | 72% | 1008.9 hPa | 0 mm | - | 702 W/m² | - |
| 1777998943 | 11.67° C | 75% | 1009.2 hPa | 0 mm | - | 358 W/m² | - |
| 1777998639 | 11.67° C | 76% | 1008.9 hPa | 0 mm | - | 535 W/m² | - |
| 1777998332 | 11.11° C | 78% | 1008.9 hPa | 0 mm | - | 443 W/m² | - |
| 1777998030 | 10.56° C | 78% | 1008.8 hPa | 0 mm | - | 291 W/m² | - |
| 1777997726 | 10.56° C | 78% | 1009.2 hPa | 0 mm | - | 240 W/m² | - |
| 1777997423 | 10° C | 80% | 1009.3 hPa | 0 mm | - | 185 W/m² | - |
* Rain latest hour (hover to see other rain measurements)
** Current wind speed in m/s (hover to see current wind gust speed)